CZ-6A DEB, 55516

Orbit data source: Space-Track

CZ-6A DEB, 55516 is space debris in SSO originally from a launch on Fri, 11 Nov 2022 UTC launched from the Taiyaun Space Center, China (TSC). Debris objects in space refer to the collection of defunct objects orbiting the Earth. Examples of debris include non-operational satellites, rocket bodies, and fragments generated from explosions, collisions, or faulty payload assembly.

Loading next visibility...
Identifier
55516, 2022-151XN
Orbit
SSO
Country
Flag of CNCN / PRC
Related business
Manufacturer
SAST
Mission
Spacecraft
Bus & Motor
Unknown
Mass
Unknown
Launch date (UTC)
2022-11-11 (3 years ago)
Launch vehicle
Unknown
Launch site
Taiyaun Space Center, China (TSC)
Object type
Payload
Rocket body
Debris
Shape & HBR
Unknown shape, 0.1 m
Radar Cross Section
Small (<0.1 m²)

Expand to show TLE details & history
Last TLE update: 1 day ago

TLE from 1 day ago
0 CZ-6A DEB
1 55516U 22151XN  25353.10550164  .00024503  00000-0  25871-2 0  9992
2 55516  98.6045  52.5122 0044303  75.3215 285.2905 14.88520394159538
Epoch: 2025-12-19T02:31Z
TLE epoch observation values (Epoch: 2025-12-19T02:31:55.341Z)
Latitude
0.00002°
Longitude
-73.41982°
Altitude
597.539 km
Speed
7.565 km/s
True Right ascension
03h 30m 02s
True Declination
0° 00' 00"
Sunlit
Object was in full shadow at epoch
Visualization orbit readout
Latitude
Unknown
Longitude
Unknown
Altitude
Unknown
Speed
Unknown
Apparent Right ascension
Unknown
Apparent Declination
Unknown
Sunlit
N/A
Visualization observer readout
Local Sidereal Time
06:43:59
Azimuth
Unknown
Elevation
Unknown
Doppler factor
Unknown
Orbital elements
Apogee altitude
630.534 km
Perigee altitude
568.707 km
Semi-major axis
6,977.757 km
Eccentricity
0.00443
Inclination
98.6045°
RAAN
52.5122°
Arg. of periapsis
75.3215°
True anomaly
284.80009°
Mean anomaly
285.2905°
Eccentric anomaly
285.04536°
Mean motion
3.72365 °/min
Orbital period
96.68 mins
BSTAR
0.0025871
Loading maneuver chart data...
Computing Atmospheric mass density...
Loading historical data...
Loading historical data...
Loading historical data...
Loading historical data...
Loading historical data...
Loading historical data...
Loading historical data...

Documentation

Showing up to 5 results
|